Location: Cieszkowy
(50.3290°N, 20.5336°E)
Time: 23:57:49
(UTC+00:00)

Meteor 1-11 - Pass Details

Date: 15 June 2024
Orbit: 841 x 885 km, 81.2° (Epoch: 18 July)

Event Time Altitude Azimuth Distance (km) Brightness Sun altitude
Exits shadow 00:15:29 18° 191° (SSW) 2,031 5.6 -13.3°
Maximum altitude 00:19:56 88° 277° (W) 893 4.3 -13.0°
Drops below altitude 10° 00:25:47 10° 12° (NNE) 2,557 8.1 -12.6°
Sets 00:28:14 0° 13° (NNE) 3,497 9.2 -12.4°
